Regional Weather Roundup
Issued by NWS

Home | Current Version | Previous Version | Graphics & Text | Print | Product List | Glossary On
Versions: 1 2 3 4 5 6 7 8 9 10 11 12 13 14 15 16 17 18 19 20 21 22 23 24 25 26 27 28 29 30 31 32 33 34 35 36 37 38 39 40 41 42 43 44 45 46 47 48 49 50
000
ASUS43 KIND 100109
RWRIN

WEATHER ROUNDUP FOR INDIANA
NATIONAL WEATHER SERVICE INDIANAPOLIS IN
900 PM EDT WED JUL 09 2014

NOTE: "FAIR" INDICATES FEW OR NO CLOUDS BELOW 12,000 FEET WITH NO
SIGNIFICANT WEATHER AND/OR OBSTRUCTIONS TO VISIBILITY.

* - STATION DOES NOT REPORT WEATHER SUCH AS PRECIPITATION OR FOG.

+ - STATION NOT QUALITY CONTROLLED BY THE NATIONAL WEATHER SERVICE.
    USE DATA WITH CAUTION...ESPECIALLY DEWPOINT AND RELATIVE
    HUMIDITY OBSERVATIONS.

INZ001>003-010>013-019-020-100200-
NORTHWEST INDIANA

CITY           SKY/WX    TMP DP  RH WIND       PRES   REMARKS
GARY /AIRPORT/ PTCLDY    70  59  68 NE5       30.01R
KNOX *+        CLEAR     69  56  63 N5        29.99R
LA PORTE +     CLEAR     68  54  61 CALM      30.01R
MICHIGAN CITY+ CLEAR     66  54  63 N5        30.01R
MONTICELLO +   CLEAR     70  60  71 CALM      29.97S
RENSSELAER +   MOCLDY    72  63  73 CALM      29.99R
VALPARAISO     CLEAR     70  55  59 N3        30.01R

$$

LMZ046-743>745-100200-
SOUTHERN LAKE MICHIGAN

STATION/POSITION TIME  TEMP WIND        PRES
                       AIR  DIR/SP/G
                 (UTC) (F)  (DEG/KT/KT) (MB)
MICHIGAN CITY    0100   69   10/  9/ 10   N/A

$$

INZ004-005-014>016-021>024-100200-
NORTH CENTRAL INDIANA

CITY           SKY/WX    TMP DP  RH WIND       PRES   REMARKS
ELKHART        CLEAR     70  54  56 CALM      30.01R
GOSHEN         CLEAR     71  55  56 N8        29.99R
LOGANSPORT +   CLOUDY    72  57  60 N5        29.99R
PERU/GRISSOM   MOCLDY    71  59  66 NE5       29.98S
ROCHESTER +    MOCLDY    73  57  56 N3        30.00R
SOUTH BEND     CLEAR     69  54  58 N7        30.01R
WARSAW +       PTCLDY    70  55  60 N5        29.99S

$$

INZ006>009-017-018-025>027-100200-
NORTHEAST INDIANA

CITY           SKY/WX    TMP DP  RH WIND       PRES   REMARKS
ANGOLA *+      CLEAR     70  55  60 N5        30.00R
AUBURN +       CLEAR     70  54  56 NW3       30.00R
FORT WAYNE     PTCLDY    71  55  56 NW5       29.99R
HUNTINGTON +   PTCLDY    70  56  62 N5        29.98R

$$

INZ028-029-035-036-043>045-051>053-100200-
WEST CENTRAL INDIANA

CITY           SKY/WX    TMP DP  RH WIND       PRES   REMARKS
GREENCASTLE +  CLEAR     72  57  60 NW3       30.01R
LAFAYETTE      CLEAR     72  58  61 W3        29.98R
TERRE HAUTE    CLEAR     73  59  61 N6        30.00R

$$

INZ030>032-037>040-046>048-054>057-064-065-100200-
CENTRAL INDIANA

CITY           SKY/WX    TMP DP  RH WIND       PRES   REMARKS
CP ATTERBURY + CLEAR     73  59  60 NW3       29.99R
COLUMBUS       CLEAR     73  61  64 CALM      29.99
INDIANAPOLIS   PTCLDY    72  54  53 NW6       29.99R
-EAGLE CREEK   CLEAR     74  55  51 NW8       29.99R
KOKOMO *+      CLEAR     72  57  60 NE6       29.99R
MARION +       CLOUDY    70  58  64 N8        29.99R
MT COMFORT *+  CLEAR     72  57  60 NW5       30.00R
SHELBYVILLE    CLEAR     74  59  59 NW7       29.98R
ZIONSVILLE +   CLEAR     72  56  58 CALM      30.00R

$$

INZ033-034-041-042-049-050-058-059-100200-
EAST CENTRAL INDIANA

CITY           SKY/WX    TMP DP  RH WIND       PRES   REMARKS
MUNCIE         CLEAR     72  58  61 W6        29.98R

$$

INZ060-061-067>069-081>083-085>088-100200-
SOUTHWEST INDIANA

CITY           SKY/WX    TMP DP  RH WIND       PRES   REMARKS
EVANSVILLE     MOCLDY    81  61  50 W5        29.98R
HUNTINGBURG *+ PTCLDY    79  64  61 CALM      29.98R
WASHINGTON +   MOCLDY    73  66  79 N3        29.98R

$$

INZ062-063-066-070>080-084-089>092-100200-
SOUTH CENTRAL AND SOUTHEAST INDIANA

CITY           SKY/WX    TMP DP  RH WIND       PRES   REMARKS
BLOOMINGTON    CLEAR     75  61  61 NW3       30.00R

$$



USA.gov is the U.S. government's official web portal to all federal, state and local government web resources and services.